星链-31601 (STARLINK-31601 )

导读

STARLINK-31601是美国太空探索技术公司SpaceX星链星座的卫星,于2024年3月11日发射。星链计划旨在构建全球卫星互联网星座,为全球用户提供高速低延迟的互联网接入服务。该卫星服役两年多,承担卫星通信任务,推动全球网络覆盖能力提升,是星链大规模组网中重要组成单元。

基本信息
目录编号:
59209
目录名称:
STARLINK-31601
国际标识:
2024-046J
轨道中心:
EARTH
卫星名称:
星链-31601
卫星全名:
星链-31601 (STARLINK-31601 )
卫星状态:
在轨 (已飞行829 天)
发射日期:
2024-03-11 UTC
国别 :
美国 (US)
星等 :
--
轨道信息
数据来源 国际轨道数据 AOE轨道数据
星历时间 2026-06-17T06:52:14+0800
1天前
查看轨道信息
2026-06-14T23:00:00+0800
3天前
查看轨道信息
半长轴 6840.845km 6840.909km
偏心率 0.0001073 0.0001299
轨道倾角 53.161° 53.159°
近地点辐角 92.388° 114.011°
升交点赤经 52.399° 63.285°
平近点角 267.724° 339.793°
近地点 461.973km 461.883km
远地点 463.443km 463.661km
周期 93.848分钟 93.849分钟
每日圈数 15.343987 15.34377
详细信息
固有亮度:
5
最大亮度:
0.3
卫星平台:
Starlink v2.0 mini
覆盖范围:
全球
运营商:
太空探索技术公司
运营商所在国:
美国
制造商(研发单位):
太空探索技术公司
制造商所在国:
美国
使用方式:
暂无
卫星简介
星链(Starlink)计划是由太空探索技术公司(SpaceX)提出的一个巨型低轨卫星互联网星座项目,计划在2019年至2024年间在太空搭建由约1.2万颗卫星组成的“星链”网络,其中1584颗将部署在地球上空550千米处的近地轨道,并从2020年开始工作。该卫星仍在工作。
2D轨道图
3D轨道图
轨道高度分析图
轨道倾角分析图
轨道综合分析图
查看轨道综合分析图